WA7BMK Weather Reports


Display with metric or nautical units.
time (UTC)temp
F
wind
direction
speed
MPH
gust
MPH
rain 1hr
in
rain 24hr
in
rain mn
in
humidity
%
barometer
mb
20260902171546 64 360 3.0 8.0 0.00 0.00 0.00 65 1006.1
20260902170043 64 360 2.0 5.0 0.00 0.00 0.00 66 1006.2
20260902164540 64 360 2.0 6.0 0.00 0.00 0.00 67 1006.5
20260902163045 63 360 2.0 6.0 0.00 0.00 0.00 67 1006.5
20260902161544 62 360 2.0 5.0 0.00 0.00 0.00 69 1006.6
20260902160043 62 0 1.0 5.0 0.00 0.00 0.00 72 1006.8
20260902154538 62 360 0.0 3.0 0.00 0.00 0.00 73 1007.0
20260902153046 62 360 2.0 5.0 0.00 0.00 0.00 72 1007.1
20260902151546 61 360 1.0 4.0 0.00 0.00 0.00 73 1007.2
20260902150043 61 360 2.0 4.0 0.00 0.00 0.00 74 1007.3
20260902144542 59 360 0.0 3.0 0.00 0.00 0.00 78 1007.6
20260902143041 58 0 0.0 0.0 0.00 0.00 0.00 80 1007.6
20260902141541 58 103 0.0 2.0 0.00 0.00 0.00 81 1007.9
20260902140043 57 0 0.0 0.0 0.00 0.00 0.00 81 1007.8
20260902134543 57 0 0.0 0.0 0.00 0.00 0.00 80 1007.9
20260902133042 57 0 0.0 0.0 0.00 0.00 0.00 80 1007.8
20260902131542 57 0 0.0 2.0 0.00 0.00 0.00 82 1007.9
20260902130045 56 0 0.0 5.0 0.00 0.00 0.00 85 1008.0
20260902124543 55 0 0.0 0.0 0.00 0.00 0.00 87 1008.3
20260902123041 55 0 0.0 0.0 0.00 0.00 0.00 86 1008.4
20260902121548 56 0 0.0 0.0 0.00 0.00 0.00 85 1008.4
20260902120044 56 0 0.0 0.0 0.00 0.00 0.00 85 1008.6
20260902114544 57 0 0.0 0.0 0.00 0.00 0.00 84 1008.7
20260902113049 57 0 0.0 1.0 0.00 0.00 0.00 85 1008.8
20260902111540 57 0 0.0 0.0 0.00 0.00 0.00 85 1008.9
20260902110042 58 0 0.0 0.0 0.00 0.00 0.00 84 1009.0
20260902104604 58 192 0.0 1.0 0.00 0.00 0.00 84 1008.9
20260902103041 58 0 0.0 1.0 0.00 0.00 0.00 84 1009.2
20260902101538 58 0 0.0 2.0 0.00 0.00 0.00 85 1009.3
20260902094543 57 0 0.0 3.0 0.00 0.00 0.00 86 1009.4
20260902093036 58 0 0.0 0.0 0.00 0.00 0.00 86 1009.5
20260902091543 58 0 0.0 0.0 0.00 0.00 0.00 85 1009.6
20260902090042 59 209 0.0 2.0 0.00 0.00 0.00 85 1009.6
20260902084539 58 323 0.0 4.0 0.00 0.00 0.00 85 1009.8
20260902083043 59 360 0.0 4.0 0.00 0.00 0.00 85 1009.8
20260902081605 59 0 0.0 1.0 0.00 0.00 0.00 85 1010.1
20260902080054 59 0 0.0 1.0 0.00 0.00 0.00 85 1010.1
20260902074544 60 0 0.0 2.0 0.00 0.00 0.00 84 1010.3
20260902073039 60 0 0.0 1.0 0.00 0.00 0.00 84 1010.2
20260902071540 60 0 0.0 3.0 0.00 0.00 0.00 84 1010.4
20260902070045 60 360 1.0 4.0 0.00 0.00 0.00 84 1010.5
20260902064537 60 0 0.0 2.0 0.00 0.00 0.00 84 1010.4
20260902063100 60 155 0.0 3.0 0.00 0.00 0.00 84 1010.6
20260902061544 60 0 0.0 1.0 0.00 0.00 0.00 84 1010.6
20260902060054 60 360 0.0 3.0 0.00 0.00 0.00 84 1010.6
20260902054543 60 0 0.0 2.0 0.00 0.00 0.00 84 1010.8
20260902053044 61 0 0.0 2.0 0.00 0.00 0.00 83 1010.9
20260902051556 61 0 0.0 3.0 0.00 0.00 0.00 83 1010.9
20260902050039 61 360 0.0 4.0 0.00 0.00 0.00 83 1010.9
20260902044546 61 0 0.0 3.0 0.00 0.00 0.00 83 1010.9
20260902043038 61 0 0.0 4.0 0.00 0.00 0.00 84 1010.9
20260902041542 61 136 0.0 3.0 0.00 0.00 0.00 84 1011.0
20260902040037 61 0 0.0 2.0 0.00 0.00 0.00 84 1011.0
20260902034540 61 360 1.0 4.0 0.00 0.00 0.00 84 1010.9
20260902033044 60 360 1.0 5.0 0.00 0.00 0.00 85 1010.9
20260902031545 60 0 0.0 2.0 0.00 0.00 0.00 86 1010.8
20260902030039 60 0 0.0 2.0 0.00 0.00 0.00 87 1010.7
20260902024544 60 0 0.0 1.0 0.00 0.00 0.00 87 1010.7
20260902023046 60 0 0.0 4.0 0.00 0.00 0.00 86 1010.7
20260902021546 61 0 0.0 2.0 0.00 0.00 0.00 86 1010.8
20260902020050 61 360 0.0 6.0 0.00 0.00 0.00 84 1010.8
20260902014548 63 360 1.0 6.0 0.00 0.00 0.00 80 1010.8
20260902013042 65 360 3.0 9.0 0.00 0.00 0.00 73 1010.7
20260902011536 65 0 2.0 9.0 0.00 0.00 0.00 72 1010.6
20260902010040 65 360 1.0 6.0 0.00 0.00 0.00 73 1010.5
20260902004542 64 360 0.0 6.0 0.00 0.00 0.00 73 1010.6
20260902003037 64 0 1.0 5.0 0.00 0.00 0.00 74 1010.6
20260902001538 64 179 1.0 8.0 0.00 0.00 0.00 75 1010.6
20260902000043 65 0 1.0 6.0 0.00 0.00 0.00 74 1010.6
20260901234554 64 0 0.0 3.0 0.00 0.00 0.00 74 1010.6
20260901233052 64 269 0.0 7.0 0.00 0.00 0.00 74 1010.6
20260901231538 65 322 2.0 8.0 0.00 0.00 0.00 73 1010.5
20260901230048 66 232 2.0 8.0 0.00 0.00 0.00 73 1010.5
20260901224542 64 0 1.0 8.0 0.00 0.00 0.00 75 1010.5
20260901223038 64 360 0.0 4.0 0.00 0.00 0.00 76 1010.6
20260901221602 64 360 2.0 6.0 0.00 0.00 0.00 77 1010.6
20260901220043 64 291 2.0 5.0 0.00 0.00 0.00 75 1010.7
20260901214543 66 360 2.0 10.0 0.00 0.00 0.00 70 1010.4
20260901213040 65 296 2.0 9.0 0.00 0.00 0.00 71 1010.4
20260901211539 65 280 2.0 8.0 0.00 0.00 0.00 73 1010.8
20260901210039 66 261 1.0 6.0 0.00 0.00 0.00 72 1010.7
20260901204537 66 259 0.0 6.0 0.00 0.00 0.00 70 1010.7
20260901203055 66 266 2.0 9.0 0.00 0.00 0.00 69 1010.7
20260901201546 66 247 2.0 7.0 0.00 0.00 0.00 69 1010.7
20260901200038 66 268 3.0 9.0 0.00 0.00 0.00 69 1010.6
20260901194539 67 360 1.0 5.0 0.00 0.00 0.00 70 1010.6
20260901193054 66 360 2.0 10.0 0.00 0.00 0.00 71 1010.8
20260901191542 66 254 3.0 10.0 0.00 0.00 0.00 71 1010.9
20260901190043 66 159 1.0 8.0 0.00 0.00 0.00 73 1010.9
20260901184539 65 208 3.0 9.0 0.00 0.00 0.00 73 1011.0
20260901183041 65 158 1.0 8.0 0.00 0.00 0.00 74 1011.1
20260901181541 64 141 1.0 6.0 0.00 0.00 0.00 75 1010.9
20260901180041 64 131 1.0 7.0 0.00 0.00 0.00 75 1010.9
20260901174541 64 184 1.0 7.0 0.00 0.00 0.00 75 1010.8
20260901173044 64 0 0.0 5.0 0.00 0.00 0.00 75 1010.7